Weather History for Ypsilanti, MI

Change the Weather History Date:

Sunday, July 28, 2013

  Actual Average Record
Temperature  
Mean Temperature 62 °F -  
Max Temperature 70 °F 83 °F 95 °F (1949)
Min Temperature 54 °F 62 °F 52 °F (1978)
Degree Days  
Heating Degree Days 4    
Growing Degree Days 12 (Base 50)    
Moisture  
Dew Point 51 °F    
Average Humidity 69    
Maximum Humidity 86    
Minimum Humidity 52    
Precipitation  
Precipitation 0.00 in - - ()
Sea Level Pressure  
Sea Level Pressure 29.90 in    
Wind  
Wind Speed 9 mph (SW)    
Max Wind Speed 17 mph    
Max Gust Speed 24 mph    
Visibility 10 miles    
Events      
Averages and records for this station are not official NWS values.
T = Trace of Precipitation, MM = Missing Value Source: NWS Daily Summary

Daily Weather History Graph

Daily Weather History Graph

Search for Another Location

Airport:

Trip Planner

Search our weather history database for the weather conditions in past years. The results will help you decide how hot, cold, wet, or windy it might be!

Date:

Astronomy

Jul. 28, 2013 Rise Set
Actual Time 6:23 AM EDT 8:57 PM EDT
Civil Twilight 5:51 AM EDT 9:29 PM EDT
Nautical Twilight 5:10 AM EDT 10:09 PM EDT
Astronomical Twilight 4:25 AM EDT 10:54 PM EDT
Moon No Moon Rise 1:13 PM EDT (7/28)
Length of Visible Light 15h 38m
Length of Day
14h 34m
Waning Gibbous, 61% of the Moon is Illuminated
Jul 28
Waning Gibbous
Jul 29
Last Quarter
Aug 6
New
Aug 14
First Quarter
Aug 20
Full

Hourly Weather History & Observations

Time (EDT) Temp. Dew Point Humidity Pressure Visibility Wind Dir Wind Speed Gust Speed Precip Events Conditions
12:53 AM 57.9 °F 50.0 °F 75% 29.87 in 10.0 mi WSW 6.9 mph - N/A   Scattered Clouds
1:53 AM 57.9 °F 51.1 °F 78% 29.85 in 10.0 mi West 6.9 mph - N/A   Mostly Cloudy
2:53 AM 55.9 °F 50.0 °F 80% 29.84 in 10.0 mi WSW 4.6 mph - N/A   Clear
3:53 AM 55.9 °F 50.0 °F 80% 29.85 in 10.0 mi SW 6.9 mph - N/A   Clear
4:53 AM 54.0 °F 48.9 °F 83% 29.86 in 10.0 mi SW 5.8 mph - N/A   Clear
5:53 AM 54.0 °F 50.0 °F 86% 29.86 in 10.0 mi SW 8.1 mph - N/A   Partly Cloudy
6:53 AM 55.0 °F 50.0 °F 83% 29.88 in 10.0 mi SSW 6.9 mph - N/A   Overcast
7:53 AM 57.0 °F 50.0 °F 77% 29.89 in 10.0 mi SSW 11.5 mph - N/A   Overcast
8:53 AM 59.0 °F 51.1 °F 75% 29.89 in 10.0 mi SSW 11.5 mph - N/A   Overcast
9:53 AM 62.1 °F 52.0 °F 70% 29.90 in 10.0 mi SW 12.7 mph - N/A   Mostly Cloudy
10:53 AM 64.9 °F 52.0 °F 63% 29.89 in 10.0 mi WSW 11.5 mph - N/A   Overcast
11:53 AM 66.0 °F 51.1 °F 59% 29.89 in 10.0 mi SW 12.7 mph 23.0 mph N/A   Overcast
12:53 PM 66.0 °F 51.1 °F 59% 29.89 in 10.0 mi WSW 15.0 mph - N/A   Overcast
1:53 PM 66.0 °F 51.1 °F 59% 29.89 in 10.0 mi SW 13.8 mph - N/A   Overcast
2:53 PM 69.1 °F 51.1 °F 53% 29.89 in 10.0 mi SW 9.2 mph - N/A   Mostly Cloudy
3:53 PM 66.0 °F 48.9 °F 54% 29.90 in 10.0 mi WSW 12.7 mph - N/A   Overcast
4:53 PM 64.0 °F 48.9 °F 58% 29.91 in 10.0 mi WSW 17.3 mph 24.2 mph N/A   Overcast
5:53 PM 68.0 °F 52.0 °F 56% 29.92 in 10.0 mi SW 12.7 mph - 0.00 in   Overcast
6:53 PM 66.9 °F 48.9 °F 52% 29.93 in 10.0 mi WSW 13.8 mph - N/A   Mostly Cloudy
7:53 PM 64.0 °F 51.1 °F 63% 29.95 in 10.0 mi WSW 6.9 mph - 0.00 in   Overcast
8:53 PM 62.1 °F 52.0 °F 70% 29.96 in 10.0 mi SW 5.8 mph - N/A   Overcast
9:53 PM 62.1 °F 54.0 °F 75% 29.98 in 10.0 mi SW 4.6 mph - N/A   Overcast
10:53 PM 61.0 °F 52.0 °F 72% 29.99 in 10.0 mi WSW 6.9 mph - N/A   Clear
11:53 PM 60.1 °F 52.0 °F 75% 29.99 in 10.0 mi SW 8.1 mph - N/A   Partly Cloudy